FW2285 Weather Reports


Display with metric or nautical units.
time (UTC)temp
F
wind
direction
speed
MPH
gust
MPH
rain 1hr
in
rain 24hr
in
rain mn
in
humidity
%
barometer
mb
20260508190015 64 324 0.0 2.0 0.00 0.00 0.00 48 1009.8
20260508184519 64 324 0.0 2.0 0.00 0.00 0.00 48 1009.6
20260508183014 64 324 0.0 3.0 0.00 0.00 0.00 47 1010.3
20260508181513 64 325 0.0 1.0 0.00 0.00 0.00 50 1010.3
20260508180013 64 331 0.0 1.0 0.00 0.00 0.00 49 1010.3
20260508174513 64 331 0.0 5.0 0.00 0.00 0.00 48 1009.9
20260508173011 64 344 1.0 3.0 0.00 0.00 0.00 49 1009.9
20260508171508 64 238 0.0 2.0 0.00 0.00 0.00 50 1010.2
20260508170009 63 267 1.0 5.0 0.00 0.00 0.00 50 1011.3
20260508164508 63 223 0.0 7.0 0.00 0.00 0.00 49 1011.4
20260508163013 63 265 1.0 4.0 0.00 0.00 0.00 50 1011.1
20260508161505 63 246 1.0 4.0 0.00 0.00 0.00 48 1010.6
20260508160005 63 165 0.0 6.0 0.00 0.00 0.00 48 1010.5
20260508154505 62 130 0.0 3.0 0.00 0.00 0.00 50 1010.7
20260508153012 62 186 0.0 3.0 0.00 0.00 0.00 50 1010.7
20260508151504 62 211 1.0 5.0 0.00 0.00 0.00 48 1010.8
20260508150004 63 76 0.0 4.0 0.00 0.00 0.00 48 1010.9
20260508144502 62 213 1.0 4.0 0.00 0.00 0.00 48 1011.0
20260508143118 62 127 0.0 8.0 0.00 0.00 0.00 49 1011.1
20260508141605 61 146 0.0 2.0 0.00 0.00 0.00 51 1011.2
20260508140115 60 117 0.0 2.0 0.00 0.00 0.00 51 1011.0
20260508134553 59 124 0.0 2.0 0.00 0.00 0.00 53 1010.9
20260508133052 58 125 0.0 6.0 0.00 0.00 0.00 53 1010.8
20260508131552 58 283 0.0 0.0 0.00 0.00 0.00 54 1010.7
20260508130051 58 283 0.0 0.0 0.00 0.00 0.00 54 1011.5
20260508124551 58 283 0.0 0.0 0.00 0.00 0.00 54 1011.1
20260508123051 57 283 0.0 0.0 0.00 0.00 0.00 54 1010.8
20260508121550 57 283 0.0 1.0 0.00 0.00 0.00 53 1010.9
20260508120059 58 283 0.0 3.0 0.00 0.00 0.00 50 1010.8
20260508114556 58 282 0.0 3.0 0.00 0.00 0.00 49 1010.7
20260508113050 57 290 0.0 3.0 0.00 0.00 0.00 51 1010.5
20260508111547 56 298 0.0 2.0 0.00 0.00 0.00 53 1010.2
20260508110049 55 162 0.0 1.0 0.00 0.00 0.00 55 1010.0
20260508104546 54 162 0.0 0.0 0.00 0.00 0.00 56 1010.0
20260508103049 54 162 0.0 0.0 0.00 0.00 0.00 56 1010.0
20260508101545 54 162 0.0 0.0 0.00 0.00 0.00 56 1010.1
20260508100059 54 162 0.0 0.0 0.00 0.00 0.00 55 1010.0
20260508094544 54 162 0.0 0.0 0.00 0.00 0.00 54 1010.2
20260508093042 53 162 0.0 0.0 0.00 0.00 0.00 54 1010.2
20260508091602 54 162 0.0 0.0 0.00 0.00 0.00 52 1010.2
20260508090041 55 162 0.0 0.0 0.00 0.00 0.00 51 1010.2
20260508084533 56 162 0.0 1.0 0.00 0.00 0.00 50 1010.2
20260508083033 56 162 0.0 2.0 0.00 0.00 0.00 49 1010.3
20260508081529 57 162 0.0 3.0 0.00 0.00 0.00 48 1010.4
20260508080128 57 101 0.0 8.0 0.00 0.00 0.00 47 1010.4
20260508074525 57 94 1.0 4.0 0.00 0.00 0.00 48 1010.5
20260508073024 58 114 0.0 3.0 0.00 0.00 0.00 47 1010.9
20260508071526 57 141 0.0 1.0 0.00 0.00 0.00 47 1010.9
20260508070020 58 140 0.0 2.0 0.00 0.00 0.00 47 1011.3
20260508064518 58 109 0.0 4.0 0.00 0.00 0.00 46 1011.6
20260508063016 58 155 0.0 2.0 0.00 0.00 0.00 46 1011.8
20260508061517 59 215 0.0 4.0 0.00 0.00 0.00 46 1011.9
20260508060024 59 88 0.0 3.0 0.00 0.00 0.00 46 1011.9
20260508054531 58 144 0.0 2.0 0.00 0.00 0.00 46 1011.9
20260508053016 58 165 0.0 2.0 0.00 0.00 0.00 47 1011.9
20260508051512 59 165 0.0 1.0 0.00 0.00 0.00 45 1011.9
20260508050010 59 165 0.0 2.0 0.00 0.00 0.00 44 1012.0
20260508044510 60 215 0.0 3.0 0.00 0.00 0.00 43 1012.1
20260508043009 60 103 0.0 3.0 0.00 0.00 0.00 43 1012.2
20260508041513 61 140 0.0 3.0 0.00 0.00 0.00 42 1012.3
20260508040008 61 133 0.0 6.0 0.00 0.00 0.00 41 1012.2
20260508034510 61 104 0.0 6.0 0.00 0.00 0.00 41 1012.2
20260508033011 61 107 0.0 2.0 0.00 0.00 0.00 41 1012.2
20260508031510 62 112 1.0 6.0 0.00 0.00 0.00 41 1012.1
20260508030006 61 72 0.0 3.0 0.00 0.00 0.00 41 1012.0
20260508024504 62 67 0.0 2.0 0.00 0.00 0.00 41 1011.8
20260508023104 62 86 0.0 5.0 0.00 0.00 0.00 41 1011.7
20260508021504 63 107 0.0 3.0 0.00 0.00 0.00 39 1011.4
20260508020003 63 168 0.0 2.0 0.00 0.00 0.00 39 1011.2
20260508014502 63 154 2.0 5.0 0.00 0.00 0.00 39 1011.2
20260508013004 64 143 0.0 2.0 0.00 0.00 0.00 37 1011.2
20260508011501 64 133 0.0 4.0 0.00 0.00 0.00 37 1011.2
20260508010003 65 132 0.0 2.0 0.00 0.00 0.00 35 1011.1
20260508004600 65 113 0.0 4.0 0.00 0.00 0.00 35 1011.1
20260508003059 67 110 1.0 7.0 0.00 0.00 0.00 33 1011.2
20260508001602 67 111 1.0 4.0 0.00 0.00 0.00 33 1011.3
20260508000058 67 125 1.0 5.0 0.00 0.00 0.00 34 1011.4
20260507234559 68 155 1.0 4.0 0.00 0.00 0.00 33 1011.6
20260507233054 68 355 0.0 6.0 0.00 0.00 0.00 34 1011.8
20260507231553 69 117 1.0 7.0 0.00 0.00 0.00 32 1011.9
20260507230053 69 165 1.0 6.0 0.00 0.00 0.00 33 1012.1
20260507224550 68 163 1.0 7.0 0.00 0.00 0.00 32 1012.2
20260507223049 69 244 2.0 9.0 0.00 0.00 0.00 32 1012.3
20260507221549 69 174 3.0 10.0 0.00 0.00 0.00 31 1012.4
20260507220048 69 164 2.0 7.0 0.00 0.00 0.00 35 1012.4
20260507214549 69 109 2.0 9.0 0.00 0.00 0.00 34 1012.6
20260507213045 69 240 4.0 10.0 0.00 0.00 0.00 35 1012.8
20260507211544 68 287 3.0 12.0 0.00 0.00 0.00 33 1012.8
20260507210040 68 92 3.0 9.0 0.00 0.00 0.00 34 1013.2
20260507204538 68 80 2.0 9.0 0.00 0.00 0.00 35 1013.3
20260507203038 68 165 5.0 13.0 0.00 0.00 0.00 35 1013.6
20260507201535 68 190 2.0 11.0 0.00 0.00 0.00 36 1013.8
20260507200034 67 96 3.0 11.0 0.00 0.00 0.00 36 1014.1
20260507194532 67 171 2.0 10.0 0.00 0.00 0.00 37 1014.4
20260507193034 66 66 3.0 10.0 0.00 0.00 0.00 37 1014.6
20260507191528 67 13 2.0 9.0 0.00 0.00 0.00 38 1014.6